Location: Neuvy Saint Sepulchre
(46.5953°N, 1.8122°E)
Time: 21:44:36
(UTC+02:00)

Envisat - Visible Passes

Search period start: 19 October 2021 00:00
Search period end: 29 October 2021 00:00
Orbit: 764 x 766 km, 98.2° (Epoch: 19 October)

Date Brightness Start Highest point End Pass type
(mag) Time Alt. Az. Time Alt. Az. Time Alt. Az.
19 Oct 5.3 06:06:37 10° NE 06:10:47 25° E 06:14:53 10° SSE visible
19 Oct 3.3 07:45:09 10° N 07:50:00 46° WNW 07:54:50 10° SW visible
20 Oct 6.2 05:31:45 10° ENE 05:33:28 12° E 05:35:11 10° ESE visible
20 Oct 3.0 07:08:07 10° NNE 07:13:14 86° ESE 07:18:20 10° SSW visible
21 Oct 4.4 06:31:29 10° NNE 06:36:17 41° E 06:41:04 10° SSE visible
21 Oct 6.2 19:30:02 10° SW 19:33:08 16° W 19:36:15 10° NW visible
22 Oct 5.6 05:55:26 10° NE 05:59:08 20° E 06:02:49 10° SE visible
22 Oct 3.1 07:33:32 10° N 07:38:32 58° WNW 07:43:29 10° SSW visible
23 Oct 3.3 06:56:37 10° NNE 07:01:42 69° ESE 07:06:45 10° S visible
24 Oct 4.8 06:20:06 10° NNE 06:24:41 33° E 06:29:15 10° SSE visible
24 Oct 6.0 19:17:46 10° SW 19:21:28 20° W 19:25:12 10° NW visible
25 Oct 5.9 05:44:23 10° NE 05:47:28 16° E 05:50:32 10° SE visible
25 Oct 2.9 07:21:57 10° N 07:27:01 72° WNW 07:32:04 10° SSW visible
26 Oct 3.7 06:45:08 10° NNE 06:50:08 55° E 06:55:07 10° S visible
26 Oct 6.5 19:45:21 10° WSW 19:47:08 12° W 19:48:56 10° WNW visible
27 Oct 5.1 06:08:47 10° NE 06:13:04 26° E 06:17:19 10° SSE visible
27 Oct 3.3 07:47:27 10° N 07:52:15 43° WNW 07:57:01 10° SW visible
28 Oct 6.1 05:33:38 10° ENE 05:35:47 13° E 05:37:56 10° ESE visible
28 Oct 3.0 07:10:23 10° NNE 07:15:31 89° WNW 07:20:36 10° SSW visible
